ES8TJM-10 Weather Reports


time (UTC)temp
F
wind
direction
speed
knots
gust
knots
rain 1hr
in
rain 24hr
in
rain mn
in
humidity
%
barometer
mb
20260506211803 44 41 10.4 11.3 0.00 0.00 0.00 44 1013.3
20260506210903 44 49 9.6 13.0 0.00 0.00 0.00 44 1013.3
20260506210004 44 43 9.6 10.4 0.00 0.00 0.00 44 1013.3
20260506205617 44 43 9.6 10.4 0.00 0.00 0.00 44 1013.3
20260506204718 44 39 9.6 11.3 0.00 0.00 0.00 43 1013.3
20260506203603 44 42 9.6 12.2 0.00 0.00 0.00 44 1013.5
20260506202703 44 35 9.6 11.3 0.00 0.00 0.00 43 1013.4
20260506201803 44 34 12.2 13.9 0.00 0.00 0.00 43 1013.4
20260506200903 44 44 11.3 13.9 0.00 0.00 0.00 43 1013.4
20260506200217 45 44 11.3 13.9 0.00 0.00 0.00 42 1013.3
20260506195403 45 40 11.3 13.0 0.00 0.00 0.00 42 1013.3
20260506194503 45 42 11.3 13.0 0.00 0.00 0.00 41 1013.4
20260506193603 45 43 11.3 13.9 0.00 0.00 0.00 41 1013.3
20260506192703 45 41 12.2 13.9 0.00 0.00 0.00 41 1013.3
20260506191803 46 33 11.3 13.9 0.00 0.00 0.00 40 1013.2
20260506190903 46 35 10.4 13.0 0.00 0.00 0.00 39 1013.4
20260506190004 46 34 9.6 13.0 0.00 0.00 0.00 38 1013.5
20260506185403 46 33 9.6 11.3 0.00 0.00 0.00 37 1013.5
20260506184503 46 29 9.6 11.3 0.00 0.00 0.00 37 1013.5
20260506183604 47 34 9.6 11.3 0.00 0.00 0.00 34 1013.5
20260506182703 47 29 9.6 12.2 0.00 0.00 0.00 32 1013.5
20260506181803 47 29 9.6 10.4 0.00 0.00 0.00 30 1013.4
20260506181116 47 42 9.6 10.4 0.00 0.00 0.00 30 1013.4
20260506180004 48 35 10.4 13.9 0.00 0.00 0.00 30 1013.3
20260506175403 48 33 10.4 13.9 0.00 0.00 0.00 29 1013.3
20260506174717 48 27 11.3 13.9 0.00 0.00 0.00 27 1013.3
20260506173603 48 27 9.6 13.0 0.00 0.00 0.00 26 1013.2
20260506172703 49 27 10.4 13.0 0.00 0.00 0.00 24 1013.3
20260506171803 49 32 9.6 12.2 0.00 0.00 0.00 24 1013.3
20260506170903 49 30 10.4 12.2 0.00 0.00 0.00 26 1013.4
20260506170004 49 23 9.6 13.0 0.00 0.00 0.00 28 1013.4
20260506165403 49 11 10.4 13.0 0.00 0.00 0.00 28 1013.4
20260506164504 50 17 8.7 12.2 0.00 0.00 0.00 29 1013.4
20260506163603 50 7 8.7 11.3 0.00 0.00 0.00 28 1013.5
20260506162703 50 360 10.4 14.8 0.00 0.00 0.00 27 1013.4
20260506161803 50 1 10.4 13.0 0.00 0.00 0.00 26 1013.3
20260506160903 50 360 11.3 14.8 0.00 0.00 0.00 26 1013.2
20260506160217 50 2 13.0 15.6 0.00 0.00 0.00 25 1013.3
20260506155403 51 6 10.4 13.0 0.00 0.00 0.00 27 1013.2
20260506154504 51 3 12.2 14.8 0.00 0.00 0.00 26 1013.3
20260506153603 51 3 11.3 13.9 0.00 0.00 0.00 25 1013.5
20260506152917 51 360 13.9 17.4 0.00 0.00 0.00 24 1013.4
20260506151803 52 356 11.3 13.0 0.00 0.00 0.00 22 1013.5
20260506150903 52 360 11.3 14.8 0.00 0.00 0.00 19 1013.4
20260506150217 52 3 12.2 14.8 0.00 0.00 0.00 19 1013.6
20260506145619 52 3 13.0 14.8 0.00 0.00 0.00 19 1013.6
20260506144504 53 6 10.4 13.9 0.00 0.00 0.00 19 1013.7
20260506143603 53 359 13.0 14.8 0.00 0.00 0.00 20 1013.7
20260506142919 53 348 12.2 15.6 0.00 0.00 0.00 21 1013.7
20260506141803 52 353 13.0 14.8 0.00 0.00 0.00 22 1013.9
20260506140904 52 327 12.2 14.8 0.00 0.00 0.00 22 1013.9
20260506140004 52 347 13.0 14.8 0.00 0.00 0.00 23 1014.2
20260506135403 52 344 12.2 14.8 0.00 0.00 0.00 22 1014.0
20260506134717 52 338 12.2 14.8 0.00 0.00 0.00 22 1014.1
20260506133603 52 341 12.2 13.9 0.00 0.00 0.00 24 1014.3
20260506132703 53 324 12.2 14.8 0.00 0.00 0.00 26 1014.5
20260506131804 53 350 12.2 15.6 0.00 0.00 0.00 26 1014.3
20260506130903 53 350 11.3 14.8 0.00 0.00 0.00 26 1014.2
20260506130004 53 340 9.6 16.5 0.00 0.00 0.00 27 1014.3
20260506125404 53 331 12.2 16.5 0.00 0.00 0.00 26 1014.3
20260506124504 53 348 12.2 14.8 0.00 0.00 0.00 25 1014.3
20260506123603 53 336 11.3 14.8 0.00 0.00 0.00 22 1014.4
20260506122703 54 331 10.4 13.0 0.00 0.00 0.00 21 1014.5
20260506122017 53 331 10.4 13.0 0.00 0.00 0.00 21 1014.5
20260506121119 52 332 10.4 13.0 0.00 0.00 0.00 21 1014.5
20260506120004 52 318 11.3 13.9 0.00 0.00 0.00 19 1014.4
20260506115404 52 333 9.6 13.0 0.00 0.00 0.00 19 1014.5
20260506114503 52 327 9.6 12.2 0.00 0.00 0.00 18 1014.5
20260506113603 53 347 11.3 13.9 0.00 0.00 0.00 17 1014.2
20260506112703 54 334 7.8 13.0 0.00 0.00 0.00 16 1014.2
20260506111803 53 342 8.7 13.0 0.00 0.00 0.00 17 1014.3
20260506110904 53 331 8.7 13.0 0.00 0.00 0.00 16 1014.4
20260506110004 54 333 7.8 13.0 0.00 0.00 0.00 15 1014.4
20260506105403 53 352 7.8 13.0 0.00 0.00 0.00 16 1014.3
20260506104719 53 347 7.0 12.2 0.00 0.00 0.00 17 1014.4
20260506103603 53 330 10.4 13.9 0.00 0.00 0.00 17 1014.4
20260506102703 53 342 10.4 14.8 0.00 0.00 0.00 17 1014.6
20260506101804 53 324 9.6 13.9 0.00 0.00 0.00 19 1014.5
20260506100904 52 331 10.4 13.0 0.00 0.00 0.00 19 1014.6
20260506100004 52 345 12.2 14.8 0.00 0.00 0.00 20 1014.6
20260506095403 52 327 9.6 14.8 0.00 0.00 0.00 20 1014.7
20260506094504 52 332 12.2 14.8 0.00 0.00 0.00 21 1014.6
20260506093603 53 325 10.4 13.0 0.00 0.00 0.00 22 1014.5
20260506092703 52 312 11.3 14.8 0.00 0.00 0.00 24 1014.6
20260506091803 52 344 9.6 13.9 0.00 0.00 0.00 26 1014.6
20260506091117 52 300 8.7 12.2 0.00 0.00 0.00 26 1014.5
20260506090004 52 340 8.7 12.2 0.00 0.00 0.00 27 1014.4
20260506085403 52 352 8.7 11.3 0.00 0.00 0.00 26 1014.5
20260506084718 52 327 7.8 11.3 0.00 0.00 0.00 24 1014.7
20260506083604 52 12 6.1 9.6 0.00 0.00 0.00 27 1014.6
20260506082703 52 320 6.1 9.6 0.00 0.00 0.00 29 1014.6
20260506081804 51 338 7.8 9.6 0.00 0.00 0.00 27 1014.5
20260506080903 51 15 7.8 9.6 0.00 0.00 0.00 27 1014.5
20260506072704 50 332 6.1 7.8 0.00 0.00 0.00 37 1014.3
20260506072017 49 345 6.1 7.8 0.00 0.00 0.00 36 1014.2
20260506071118 50 336 7.0 8.7 0.00 0.00 0.00 37 1014.1
20260506061803 49 59 4.3 7.0 0.00 0.00 0.00 62 1013.8
20260506060904 48 30 2.6 4.3 0.00 0.00 0.00 67 1013.9
20260506050904 45 349 2.6 3.5 0.00 0.00 0.00 77 1013.5
20260506050217 45 355 0.0 1.7 0.00 0.00 0.00 79 1013.5
20260506044503 41 0 0.0 0.0 0.00 0.00 0.00 83 1013.5
20260506043603 40 45 0.0 0.9 0.00 0.00 0.00 85 1013.5
20260506042917 38 0 0.0 0.0 0.00 0.00 0.00 86 1013.4
20260506041803 36 92 0.9 1.7 0.00 0.00 0.00 82 1013.2
20260506040903 35 133 0.9 0.9 0.00 0.00 0.00 85 1013.1
20260506040004 34 137 0.9 1.7 0.00 0.00 0.00 87 1013.0
20260506035618 34 150 0.9 1.7 0.00 0.00 0.00 87 1013.0
20260506034503 32 180 0.9 1.7 0.00 0.00 0.00 89 1012.9
20260506033817 32 180 0.9 1.7 0.00 0.00 0.00 90 1012.8
20260506032703 31 164 0.0 1.7 0.00 0.00 0.00 90 1012.5
20260506031803 31 84 1.7 2.6 0.00 0.00 0.00 90 1012.5
20260506030903 30 71 1.7 2.6 0.00 0.00 0.00 89 1012.4
20260506030004 29 41 0.9 1.7 0.00 0.00 0.00 90 1012.4
20260506025618 29 25 0.9 1.7 0.00 0.00 0.00 90 1012.2
20260506024503 28 40 1.7 1.7 0.00 0.00 0.00 85 1012.2
20260506023603 28 33 0.9 1.7 0.00 0.00 0.00 85 1012.2
20260506022703 28 44 0.9 1.7 0.00 0.00 0.00 89 1012.2
20260506022017 29 45 0.0 1.7 0.00 0.00 0.00 89 1012.1
20260506020903 29 208 2.6 3.5 0.00 0.00 0.00 89 1011.9
20260506020004 29 249 3.5 4.3 0.00 0.00 0.00 89 1011.8
20260506015403 28 236 3.5 4.3 0.00 0.00 0.00 84 1011.8
20260506014503 28 219 2.6 3.5 0.00 0.00 0.00 84 1011.8
20260506013603 28 181 1.7 2.6 0.00 0.00 0.00 88 1011.7
20260506012704 28 0 0.0 0.0 0.00 0.00 0.00 84 1011.7
20260506012017 28 0 0.0 0.0 0.00 0.00 0.00 84 1011.6
20260506010903 28 90 1.7 2.6 0.00 0.00 0.00 88 1011.5
20260506010003 29 71 2.6 2.6 0.00 0.00 0.00 88 1011.5
20260506005403 29 50 2.6 2.6 0.00 0.00 0.00 88 1011.3
20260506004504 29 90 0.0 1.7 0.00 0.00 0.00 87 1011.4
20260506003818 29 90 0.0 0.9 0.00 0.00 0.00 87 1011.2
20260506002917 29 66 1.7 2.6 0.00 0.00 0.00 87 1011.1
20260506001803 29 180 0.0 0.9 0.00 0.00 0.00 86 1011.2
20260506001118 30 180 0.9 1.7 0.00 0.00 0.00 86 1011.0
20260506000004 30 93 0.9 1.7 0.00 0.00 0.00 85 1010.9
20260505235403 30 84 1.7 2.6 0.00 0.00 0.00 85 1011.0
20260505234503 31 53 2.6 3.5 0.00 0.00 0.00 84 1010.8
20260505233603 31 225 0.9 1.7 0.00 0.00 0.00 83 1010.9
20260505232703 31 0 0.0 0.0 0.00 0.00 0.00 82 1010.8
20260505231803 31 0 0.0 0.0 0.00 0.00 0.00 82 1010.8
20260505230903 32 0 0.0 0.0 0.00 0.00 0.00 81 1010.9
20260505230004 32 0 0.0 0.0 0.00 0.00 0.00 80 1010.9
20260505225403 32 225 0.0 1.7 0.00 0.00 0.00 79 1010.9
20260505224718 33 258 1.7 1.7 0.00 0.00 0.00 79 1010.8
20260505223603 33 284 1.7 2.6 0.00 0.01 0.00 79 1010.9
20260505222704 33 315 1.7 2.6 0.00 0.01 0.00 79 1010.8
20260505221803 34 315 1.7 2.6 0.00 0.01 0.00 79 1010.8
20260505220903 34 315 2.6 2.6 0.00 0.01 0.00 78 1010.8
20260505220218 34 315 2.6 2.6 0.00 0.01 0.00 77 1010.8
20260505215403 35 315 0.9 1.7 0.00 0.01 0.00 77 1010.7
20260505214503 36 284 2.6 3.5 0.00 0.01 0.00 76 1010.6
20260505213603 36 270 2.6 3.5 0.00 0.01 0.00 75 1010.5
20260505212703 36 270 1.7 2.6 0.00 0.01 0.00 72 1010.4